Location: Bergfeld
(52.0500°N, 11.7833°E)
Time: 20:34:28
(UTC+00:00)

Cosmos 1346 Rocket - Pass Details

Date: 17 February 2020
Orbit: 527 x 552 km, 81.2° (Epoch: 03 April)

Event Time Altitude Azimuth Distance (km) Brightness Sun altitude
Rises 05:19:43 0° 351° (N) 2,696 6.2 -10.7°
Reaches altitude 10° 05:21:58 10° 358° (N) 1,796 5.4 -10.3°
Maximum altitude 05:25:46 46° 72° (ENE) 727 3.9 -9.7°
Drops below altitude 10° 05:29:32 10° 146° (SSE) 1,772 6.0 -9.2°
Sets 05:31:44 0° 153° (SSE) 2,655 6.9 -8.8°
